Location: Fluertsh�userhof
(48.7537°N, 10.3850°E)
Time: 04:59:25
(UTC+00:00)

ATLAS 2AS CENTAUR R/B - Pass Details

Date: 18 September 2020
Orbit: 939 x 1273 km, 63.7° (Epoch: 27 October)

Event Time Altitude Azimuth Distance (km) Brightness Sun altitude
Rises 19:13:05 0° 176° (S) 4,181 5.5 -18.2°
Reaches altitude 10° 19:16:17 10° 165° (SSE) 3,241 4.8 -18.7°
Enters shadow 19:16:58 12° 162° (SSE) 3,061 4.7 -18.8°
Exits shadow 19:24:46 25° 87° (E) 2,315 4.0 -19.9°
Drops below altitude 10° 19:29:09 10° 56° (NE) 3,252 5.0 -20.6°
Sets 19:32:20 0° 46° (NE) 4,198 5.6 -21.0°
